Stations météo

Publicité
Bourges, France (7255): Température de l'air & dewpoint: 14.07.2018 14:00:00 - 20.07.2018 14:00:00 (CEST)Bourges, France (7255): Température de l'air 5cm: 14.07.2018 14:00:00 - 20.07.2018 14:00:00 (CEST)Bourges, France (7255): Température de l'air -20cm & Température de l'air -100cm: 14.07.2018 14:00:00 - 20.07.2018 14:00:00 (CEST)Bourges, France (7255): Vitesse du vent & gusts: 14.07.2018 14:00:00 - 20.07.2018 14:00:00 (CEST)Bourges, France (7255): Direction du vent: 14.07.2018 14:00:00 - 20.07.2018 14:00:00 (CEST)Bourges, France (7255): reduced air pressure: 14.07.2018 14:00:00 - 20.07.2018 14:00:00 (CEST)Bourges, France (7255): visibility: 14.07.2018 14:00:00 - 20.07.2018 14:00:00 (CEST)Bourges, France (7255): Ensoleillement: 14.07.2018 14:00:00 - 20.07.2018 14:00:00 (CEST)Bourges, France (7255): Quantités de précipitations: 14.07.2018 14:00:00 - 20.07.2018 14:00:00 (CEST)
Date & Time tt [°C] td [°C] tt 5cm [°C] tt -20cm [°C] tt -100cm [°C] ff [km/h] ff [knt] fx [km/h] fx [knt] dd ppp [hPa] vv [km] sd [min] rr [mm]
20.07.2018 14:00:00 23,4 15,2 26,2 25,0 21,5 14 8 24 13 W 1014,7 20 28 0,0
20.07.2018 13:00:00 22,6 15,2 24,9 24,7 21,5 8 4 22 12 WSW 1015,3 20 23 0,0
20.07.2018 12:00:00 22,4 15,5 25,0 24,5 21,5 12 6 21 12 W 1015,5 20 25 0,0
20.07.2018 11:00:00 21,8 14,9 22,7 24,4 21,6 8 4 14 8 WNW 1015,5 20 28 0,0
20.07.2018 10:00:00 20,4 16,2 22,5 24,5 21,6 6 4 16 8 WSW 1015,7 20 39 0,0
20.07.2018 09:00:00 19,3 16,5 18,3 24,7 21,5 7 4 17 9 SW 1015,6 20 54 0,0
20.07.2018 08:00:00 17,4 15,9 16,2 25,0 21,5 9 5 13 7 S 1015,4 20 4 0,0
20.07.2018 07:00:00 17,1 15,8 14,9 25,4 21,5 3 1 9 5 E 1015,1 20 0 0,0
20.07.2018 06:00:00 17,2 15,7 16,4 25,7 21,5 8 4 18 10 SE 1015,2 20 0 0,4
20.07.2018 05:00:00 17,6 15,6 16,9 26,1 21,5 5 3 20 11 NNE 1015,1 20 0 1,0
20.07.2018 04:00:00 17,9 15,9 17,0 26,5 21,5 13 7 38 21 NNW 1016,3 20 0 0,0
20.07.2018 03:00:00 17,5 15,5 16,9 27,0 21,5 13 7 29 16 N 1015,2 20 0 0,2
20.07.2018 02:00:00 18,2 15,8 17,3 27,5 21,5 16 9 50 27 W 1016,7 20 0 0,6
20.07.2018 01:00:00 19,5 14,9 18,8 27,9 21,5 18 10 44 24 N 1016,0 20 0 0,0
20.07.2018 00:00:00 21,7 14,6 21,6 28,3 21,5 11 6 26 14 NNE 1015,7 20 0 0,0
19.07.2018 23:00:00 22,0 15,1 21,8 28,8 21,5 14 7 40 22 N 1015,0 20 0 0,0
19.07.2018 22:00:00 22,9 14,5 22,8 29,1 21,5 19 11 44 24 NW 1015,1 20 0 0,0
19.07.2018 21:00:00 27,4 12,2 26,9 29,3 21,5 7 4 16 8 N 1013,7 20 0 0,0
19.07.2018 20:00:00 29,1 10,7 29,5 29,4 21,5 10 5 19 10 N 1013,2 20 24 0,0
19.07.2018 19:00:00 30,9 9,7 35,5 29,1 21,5 11 6 22 12 N 1013,1 20 60 0,0
19.07.2018 18:00:00 31,5 9,7 35,8 28,6 21,5 9 5 22 12 NNW 1013,7 20 55 0,0
19.07.2018 17:00:00 31,3 9,5 36,4 28,0 21,5 13 7 26 14 NNW 1014,1 20 54 0,0
19.07.2018 16:00:00 31,4 10,1 34,0 27,2 21,5 9 5 22 12 NNE 1014,4 20 53 0,0
19.07.2018 15:00:00 31,4 9,6 37,8 26,4 21,5 5 3 19 10 WNW 1014,7 20 60 0,0
19.07.2018 14:00:00 30,3 8,7 36,6 25,5 21,5 6 4 18 10 SE 1015,2 20 60 0,0
19.07.2018 13:00:00 29,3 8,4 35,3 24,8 21,5 4 2 18 10 NNW 1015,8 20 60 0,0
19.07.2018 12:00:00 28,9 9,6 35,1 24,2 21,5 8 4 16 9 ENE 1016,1 20 60 0,0
19.07.2018 11:00:00 27,8 10,0 30,6 23,8 21,5 2 1 7 4 NE 1016,2 20 60 0,0
19.07.2018 10:00:00 25,0 12,2 28,6 23,6 21,4 4 2 7 4 E 1016,6 20 60 0,0
19.07.2018 09:00:00 21,9 11,9 24,3 23,7 21,5 5 3 9 5 ESE 1016,8 20 60 0,0
19.07.2018 08:00:00 19,2 12,9 16,3 24,0 21,4 0 0 6 4 N 1016,8 20 58 0,0
19.07.2018 07:00:00 15,8 12,0 14,7 24,3 21,4 6 3 9 5 S 1016,9 20 20 0,0
19.07.2018 06:00:00 17,7 11,7 15,3 24,6 21,5 8 4 11 6 E 1016,7 20 0 0,0
19.07.2018 05:00:00 17,0 12,7 15,5 25,0 21,4 6 4 8 4 E 1016,5 20 0 0,0
19.07.2018 04:00:00 18,4 12,6 14,8 25,3 21,4 4 2 7 4 NE 1016,5 20 0 0,0
19.07.2018 03:00:00 18,8 13,2 15,4 25,7 21,4 5 3 8 4 NE 1016,6 20 0 0,0
19.07.2018 02:00:00 18,5 12,7 15,3 26,2 21,4 4 2 8 4 E 1016,8 20 0 0,0
19.07.2018 01:00:00 20,7 12,4 16,2 26,6 21,5 0 0 8 4 N 1016,9 20 0 0,0
19.07.2018 00:00:00 21,6 12,4 18,4 27,0 21,4 4 2 8 4 NNE 1016,5 20 0 0,0
18.07.2018 23:00:00 22,2 12,2 18,0 27,4 21,4 5 3 6 4 N 1016,4 20 0 0,0
18.07.2018 22:00:00 24,2 11,5 20,8 27,7 21,4 5 3 11 6 N 1015,8 20 13 0,0
18.07.2018 21:00:00 26,4 9,7 25,8 27,8 21,4 8 4 18 10 N 1015,1 20 60 0,0
18.07.2018 20:00:00 27,5 9,3 29,5 27,7 21,4 12 6 23 12 N 1015,0 20 52 0,0
18.07.2018 19:00:00 29,1 9,2 33,2 27,4 21,4 7 4 20 11 ENE 1014,9 20 60 0,0
18.07.2018 18:00:00 28,7 9,4 30,9 27,0 21,4 8 4 18 10 NNE 1015,0 20 47 0,0
18.07.2018 17:00:00 27,9 9,7 29,8 26,5 21,4 4 2 22 12 NNE 1015,3 20 25 0,0
18.07.2018 16:00:00 29,0 9,7 29,1 26,0 21,4 5 3 19 10 SE 1015,7 20 24 0,0
18.07.2018 15:00:00 27,0 10,2 30,4 25,4 21,4 8 4 20 11 NNE 1016,0 20 37 0,0
18.07.2018 14:00:00 27,5 11,1 28,4 24,9 21,4 3 2 12 7 ESE 1016,4 20 23 0,0
18.07.2018 13:00:00 26,0 10,6 27,1 24,5 21,4 5 3 13 7 W 1017,1 20 17 0,0
18.07.2018 12:00:00 25,3 11,5 27,4 24,0 21,4 4 2 15 8 SSW 1017,5 20 30 0,0
18.07.2018 11:00:00 25,2 11,7 29,8 23,6 21,4 4 2 10 5 WSW 1017,8 20 58 0,0
18.07.2018 10:00:00 23,5 12,2 27,2 23,5 21,4 3 2 6 4 SSW 1018,1 20 60 0,0
18.07.2018 09:00:00 21,0 13,9 23,2 23,6 21,4 3 2 8 4 SSW 1018,2 19 60 0,0
18.07.2018 08:00:00 17,8 14,1 15,3 23,8 21,4 4 2 6 4 SSW 1018,3 20 52 0,0
18.07.2018 07:00:00 15,7 13,4 13,6 24,1 21,4 6 3 8 4 S 1018,3 20 0 0,0
18.07.2018 06:00:00 17,0 13,5 14,6 24,3 21,4 3 2 4 2 S 1018,0 20 0 0,0
18.07.2018 05:00:00 17,4 13,7 16,9 24,6 21,4 3 2 6 4 SE 1018,1 20 0 0,0
18.07.2018 04:00:00 17,0 13,5 15,9 24,9 21,4 2 1 6 3 SE 1018,2 20 0 0,0
18.07.2018 03:00:00 16,8 13,1 14,8 25,3 21,4 4 2 6 4 ESE 1018,6 20 0 0,0
18.07.2018 02:00:00 18,0 12,9 16,4 25,7 21,4 6 3 9 5 WNW 1018,5 20 0 0,0
18.07.2018 01:00:00 19,0 12,7 17,7 26,1 21,4 5 3 14 8 W 1018,7 20 0 0,0
18.07.2018 00:00:00 20,3 12,8 18,7 26,5 21,4 8 5 16 9 WSW 1018,8 20 0 0,0
17.07.2018 23:00:00 21,1 12,2 20,0 26,8 21,3 10 5 18 10 WSW 1018,6 20 0 0,0
17.07.2018 22:00:00 22,4 10,5 20,8 27,2 21,4 10 6 16 8 WSW 1018,1 20 11 0,0
17.07.2018 21:00:00 24,5 8,8 23,5 27,3 21,3 7 4 21 12 W 1017,7 20 60 0,0
17.07.2018 20:00:00 25,7 8,2 27,7 27,2 21,3 12 7 29 16 W 1017,4 20 60 0,0
17.07.2018 19:00:00 26,3 8,3 29,3 27,0 21,3 13 7 29 16 W 1017,4 20 60 0,0
17.07.2018 18:00:00 26,2 7,7 28,1 26,7 21,3 18 10 36 20 WSW 1017,7 20 52 0,0
17.07.2018 17:00:00 25,6 8,6 28,6 26,3 21,3 14 8 31 17 W 1018,0 20 37 0,0
17.07.2018 16:00:00 25,8 8,3 27,3 25,8 21,3 16 9 35 19 W 1018,3 20 28 0,0
17.07.2018 15:00:00 25,9 8,8 26,4 25,2 21,3 17 9 37 20 WSW 1018,4 20 38 0,0
17.07.2018 14:00:00 24,8 11,7 25,7 24,7 21,3 16 9 35 19 WSW 1018,8 20 39 0,0
17.07.2018 13:00:00 24,7 13,6 24,9 24,4 21,3 14 7 29 16 W 1019,0 20 39 0,0
17.07.2018 12:00:00 22,1 13,7 22,7 24,2 21,3 14 8 32 18 W 1019,3 20 14 0,0
17.07.2018 11:00:00 20,2 14,3 21,6 24,2 21,3 18 10 33 18 WSW 1019,5 20 4 0,0
17.07.2018 10:00:00 19,7 14,5 19,8 24,2 21,3 16 9 31 17 W 1019,1 20 11 0,0
17.07.2018 09:00:00 18,4 15,1 18,7 24,4 21,3 14 8 31 17 WSW 1018,9 20 0 0,0
17.07.2018 08:00:00 17,8 15,1 17,2 24,7 21,3 14 8 33 18 WSW 1018,8 20 23 0,0
17.07.2018 07:00:00 16,8 14,3 16,6 25,0 21,3 11 6 22 12 WSW 1018,3 20 4 0,0
17.07.2018 06:00:00 17,5 14,2 16,9 25,3 21,2 10 6 27 15 WSW 1017,8 20 0 0,0
17.07.2018 05:00:00 18,4 13,9 17,9 25,7 21,2 14 8 29 16 WSW 1017,2 20 0 0,0
17.07.2018 04:00:00 19,4 13,3 19,0 26,0 21,2 14 8 25 13 W 1016,9 20 0 0,0
17.07.2018 03:00:00 20,2 12,9 19,6 26,4 21,2 11 6 23 12 W 1016,8 20 0 0,0
17.07.2018 02:00:00 20,8 13,2 19,8 26,8 21,2 9 5 18 10 W 1016,6 20 0 0,0
17.07.2018 01:00:00 22,1 12,4 21,3 27,2 21,2 9 5 26 14 W 1016,1 20 0 0,0
17.07.2018 00:00:00 22,5 12,7 21,3 27,7 21,2 8 5 15 8 WSW 1015,6 20 0 0,0
16.07.2018 23:00:00 23,7 8,1 22,1 28,1 21,2 7 4 12 7 W 1015,3 20 0 0,0
16.07.2018 22:00:00 24,8 10,3 23,3 28,4 21,2 6 4 16 9 W 1014,4 20 11 0,0
16.07.2018 21:00:00 27,3 11,3 26,7 28,6 21,2 10 5 19 11 WNW 1013,3 20 60 0,0
16.07.2018 20:00:00 28,2 10,4 29,1 28,6 21,2 11 6 28 15 NW 1012,6 20 48 0,0
16.07.2018 19:00:00 29,5 9,6 33,6 28,4 21,2 15 8 30 16 NW 1012,0 20 60 0,0
16.07.2018 18:00:00 29,7 9,8 34,8 28,0 21,2 15 8 28 15 NW 1011,8 20 60 0,0
16.07.2018 17:00:00 29,6 10,7 34,9 27,4 21,2 13 7 31 17 NW 1011,6 20 55 0,0
16.07.2018 16:00:00 29,4 10,5 33,5 26,7 21,2 14 8 24 13 NW 1011,8 20 57 0,0
16.07.2018 15:00:00 29,2 12,2 33,9 25,9 21,2 12 7 29 15 WNW 1011,9 20 60 0,0
16.07.2018 14:00:00 28,4 12,7 35,5 25,2 21,2 12 6 25 14 NW 1012,1 20 60 0,0
16.07.2018 13:00:00 27,8 13,7 34,0 24,5 21,2 13 7 25 14 WNW 1012,4 20 60 0,0
16.07.2018 12:00:00 27,1 15,8 32,4 24,0 21,2 7 4 20 11 WNW 1012,5 20 52 0,0
16.07.2018 11:00:00 24,7 15,6 29,4 23,8 21,1 8 5 15 8 NNW 1012,4 20 60 0,0
16.07.2018 10:00:00 22,7 14,5 28,0 23,7 21,1 8 4 15 8 W 1013,0 20 60 0,0
16.07.2018 09:00:00 20,7 14,8 21,7 23,8 21,1 5 3 11 6 N 1013,0 20 58 0,0
16.07.2018 08:00:00 18,5 14,2 18,0 24,1 21,1 5 3 10 6 E 1012,9 20 31 0,0
16.07.2018 07:00:00 17,2 13,9 14,9 24,3 21,1 8 5 11 6 ENE 1012,7 20 15 0,0
16.07.2018 06:00:00 16,5 14,1 15,7 24,7 21,1 6 3 11 6 ESE 1013,1 20 0 0,0
16.07.2018 05:00:00 17,4 14,3 16,8 25,0 21,1 10 5 12 6 E 1013,1 20 0 0,0
16.07.2018 04:00:00 17,9 14,6 16,9 25,3 21,1 6 4 12 7 E 1013,5 20 0 0,0
16.07.2018 03:00:00 18,8 14,7 18,2 25,7 21,1 7 4 15 8 E 1013,7 20 0 0,0
16.07.2018 02:00:00 19,4 14,4 18,3 26,1 21,1 9 5 17 9 E 1013,8 20 0 0,0
16.07.2018 01:00:00 21,3 13,5 18,1 26,5 21,1 11 6 18 10 E 1013,6 20 0 0,0
16.07.2018 00:00:00 23,1 12,1 18,0 26,9 21,1 4 2 9 5 ENE 1013,8 20 0 0,0
15.07.2018 23:00:00 25,2 11,7 19,0 27,3 21,1 7 4 13 7 ENE 1013,7 20 0 0,0
15.07.2018 22:00:00 25,2 12,8 19,4 27,6 21,1 3 2 8 4 N 1013,1 20 15 0,0
15.07.2018 21:00:00 28,5 12,0 26,8 27,6 21,1 5 3 15 8 N 1012,6 20 60 0,0
15.07.2018 20:00:00 29,6 11,2 32,4 27,5 21,1 9 5 16 9 NNW 1012,4 20 60 0,0
15.07.2018 19:00:00 30,1 10,6 34,6 27,2 21,0 7 4 18 10 NW 1012,3 20 60 0,0
15.07.2018 18:00:00 30,6 10,0 32,1 26,7 21,0 5 3 14 8 NW 1012,3 20 51 0,0
15.07.2018 17:00:00 29,8 10,8 37,2 26,3 21,1 8 4 18 10 NNE 1012,6 20 60 0,0
15.07.2018 16:00:00 28,8 11,8 28,0 26,0 21,0 13 7 22 12 N 1013,2 20 38 0,0
15.07.2018 15:00:00 26,3 15,7 26,5 25,8 21,0 16 9 26 14 SSW 1013,8 20 6 0,0
15.07.2018 14:00:00 28,2 11,7 29,4 25,2 21,0 10 6 20 11 NNE 1013,6 20 11 0,0
15.07.2018 13:00:00 29,8 11,3 37,5 24,4 21,0 6 3 14 8 E 1014,0 20 60 0,0
15.07.2018 12:00:00 29,0 13,6 33,9 23,9 21,0 4 2 12 6 N 1014,5 20 60 0,0
15.07.2018 11:00:00 26,3 14,1 32,3 23,5 21,0 4 2 16 8 NNW 1014,9 20 57 0,0
15.07.2018 10:00:00 25,8 14,0 29,8 23,4 21,0 0 0 7 4 N 1014,9 20 49 0,0
15.07.2018 09:00:00 23,4 14,7 23,6 23,5 21,0 4 2 8 5 E 1014,9 20 60 0,0
15.07.2018 08:00:00 20,4 14,7 18,8 23,7 21,0 6 3 9 5 E 1015,1 20 60 0,0
15.07.2018 07:00:00 18,0 14,1 14,2 24,0 21,0 3 1 5 3 NE 1015,0 20 23 0,0
15.07.2018 06:00:00 17,1 13,6 13,5 24,4 21,0 3 1 8 4 E 1015,2 20 0 0,0
15.07.2018 05:00:00 18,0 14,1 14,4 24,7 21,0 0 0 4 2 N 1015,1 20 0 0,0
15.07.2018 04:00:00 18,7 14,4 15,1 25,1 21,0 0 0 8 4 N 1015,3 20 0 0,0
15.07.2018 03:00:00 19,1 13,9 15,9 25,4 21,0 4 2 6 3 E 1015,6 20 0 0,0
15.07.2018 02:00:00 20,2 14,3 16,2 25,8 21,0 4 2 6 3 ESE 1015,8 20 0 0,0
15.07.2018 01:00:00 21,5 13,9 17,2 26,2 21,0 4 2 9 5 ENE 1015,8 20 0 0,0
15.07.2018 00:00:00 23,8 13,9 19,6 26,5 21,0 5 3 9 5 NE 1015,7 3,7 0 0,0
14.07.2018 23:00:00 23,5 13,1 19,1 26,9 21,0 2 1 6 3 NNE 1015,8 20 0 0,0
14.07.2018 22:00:00 24,6 12,9 20,0 27,2 21,0 2 1 6 3 NNE 1015,5 20 16 0,0
14.07.2018 21:00:00 27,7 11,7 26,7 27,3 21,0 4 2 8 4 NNE 1015,1 19 39 0,0
14.07.2018 20:00:00 28,1 11,6 28,8 27,4 21,0 5 3 14 8 N 1015,1 16 11 0,0
14.07.2018 19:00:00 28,9 11,0 30,3 27,2 21,0 9 5 21 12 NNE 1015,2 20 13 0,0
14.07.2018 18:00:00 30,2 11,2 31,4 26,8 21,0 12 6 20 11 NE 1015,5 20 29 0,0
14.07.2018 17:00:00 30,0 11,0 31,8 26,2 21,0 9 5 19 11 E 1015,8 20 36 0,0
14.07.2018 16:00:00 29,4 12,3 32,0 25,5 21,0 7 4 21 11 NNE 1016,2 20 45 0,0
14.07.2018 15:00:00 29,0 13,2 31,8 24,8 21,0 9 5 27 14 NNW 1016,5 20 50 0,0
14.07.2018 14:00:00 27,6 13,2 32,2 24,2 21,0 14 7 25 13 NNW 1017,0 20 20 0,0

tt = Température de l'air
td = dewpoint
tt 5cm = Température de l'air 5cm
tt -20cm = Température de l'air -20cm
tt -100cm = Température de l'air -100cm
ff = Vitesse du vent
fx = gusts
dd = Direction du vent
ppp = reduced air pressure
vv = visibility
sd = Ensoleillement
rr = Quantités de précipitations

stations d'obs. à proximité